Location: Huesca
(42.1318°N, 0.4078°W)
Time: 00:04:43
(UTC+02:00)

ACS3 Solar Sail - Pass Details

Date: 24 June 2024
Orbit: 992 x 1023 km, 97.4° (Epoch: 12 July)

Event Time Altitude Azimuth Distance (km) Brightness Sun altitude
Exits shadow 22:39:54 11° 134° (SE) 2,664 6.4 -9.3°
Maximum altitude 22:45:18 39° 69° (ENE) 1,448 5.5 -10.0°
Drops below altitude 10° 22:51:00 10° 3° (N) 2,766 7.8 -10.7°
Sets 22:53:37 0° 356° (N) 3,718 8.7 -11.1°
